Location: Unspecified
(0.0000°N, 0.0000°E)
Time: 09:19:20
(UTC+00:00)

deb DAPP - Pass Details

Date: 21 December 2025
Orbit: 606 x 945 km, 99.0° (Epoch: 14 January)

Event Time Altitude Azimuth Distance (km) Brightness Sun altitude
Rises 20:09:07 0° 198° (SSW) 3,293 ? -29.7°
Reaches altitude 10° 20:12:04 10° 216° (SW) 2,424 ? -30.4°
Maximum altitude 20:15:41 18° 258° (WSW) 1,964 ? -31.2°
Drops below altitude 10° 20:19:28 10° 300° (WNW) 2,552 ? -32.0°
Sets 20:22:43 0° 318° (NW) 3,534 ? -32.7°
